Погода в Чиме

Россия / Республика Коми     63°25′40″N   48°14′11″E
темп.,
°C
ветер,
м/с
пор.,
м/с
влажн.,
%
обл.,
%
осадки,
мм/ч
давл.,
гПа
погр.,
м
9 марта, вт
вт900:00−29ссв379639 0.0 1013183
03:00−32ссв259632 0.0 1015128
06:00−33с259611 0.0 1016108
09:00−28с249321 0.0 1017249
12:00−23ссз248957 0.0 1018402
15:00−20ссз258767 0.0 1018531
18:00−24зсз2398100 0.0 101953
21:00−25з229870 0.0 102027
10 марта, ср
ср1000:00−24з249995 0.1 102096
03:00−24зсз229997 0.2 102065
06:00−26зсз2210097 0.0 102020
09:00−23зсз249698 0.0 1020180
12:00−16з388990 0.0 1019344
15:00−13зсз4118395 0.0 1017715
18:00−11сз51393100 0.5 1015816
21:00−9сз51294100 0.9 1014925
11 марта, чт
чт1100:00−8ссз61389100 0.4 1015973
03:00−10сз51191100 0.5 1016560
06:00−15сз4148799 0.1 1017425
09:00−14сз498565 0.1 1017405
12:00−9зсз59741 0.0 1016676
15:00−9з59743 0.0 1015752
18:00−12з4138292 0.0 1015700
21:00−12з5138396 0.0 1014749
12 марта, пт
пт1200:00−12з41384100 0.0 1013715
03:00−13з51285100 0.0 1012627
06:00−14зюз51290100 0.0 1012526
09:00−12зюз51291100 0.0 1011541
12:00−8зюз51188100 0.0 1012615
15:00−6зюз5118099 0.1 1011750
18:00−8зюз513858 0.0 1012577
21:00−9юз5149021 0.0 1013523
13 марта, сб
сб1300:00−10юз514906 0.0 1013468
03:00−12юз4128815 0.0 1014434
06:00−15юз412910 0.0 1014380
09:00−12ююз5128711 0.0 1013450
12:00−7ююз613800 0.0 1013663
15:00−6ююз6128624 0.0 1012890
18:00−8ююз61389100 0.2 1011881
21:00−8юз51391100 0.3 1011774